{"data":{"norad_id":62109,"intl_designator":"2024-220X","name":"STARLINK-33556","alt_names":[],"object_type":"PAYLOAD","status":"ACTIVE","operator":null,"country":"US","launch_date":"2024-11-25","launch_site_code":"AFETR","launch_vehicle":null,"mission":null,"orbit_class":"UNKNOWN","rcs_meters":null,"size_class":null,"mass_kg":null,"dimensions":null,"purposes":["comms"],"wikipedia_slug":null,"has_3d_model":false,"image_url":null,"decayed_at":null,"tle_current":{"epoch":"2026-05-24T23:54:50.114304Z","epoch_age_seconds":78636,"freshness":"FRESH","line1":"1 62109U 24220X   26144.99641336  .00011100  00000+0  41229-3 0  9999","line2":"2 62109  42.9988 134.4034 0001329 271.9512  88.1188 15.27578294 84883","mean_motion":15.27578294,"eccentricity":0.0001329,"inclination_deg":42.9988,"raan_deg":134.4034,"arg_perigee_deg":271.9512,"mean_anomaly_deg":88.1188,"bstar":0.00041229,"rev_number":8488,"period_min":94.266853990791,"perigee_km":482.14235211107,"apogee_km":483.96605673321,"semimajor_km":6861.1912044221,"source":"CELESTRAK","updated_at":"2026-05-25T13:38:19.561401Z"}}}